Date String (YYYY-MM-DD hh:mm:ss) UTC,Instrument flags,Ambient pressure (hPa),Sample flow (lpm),Bypass flow (lpm),Sample temperature (°C),Ambient temperature (°C),ASC tube jacket temperature (°C),LED temperature (°C),Box temperature (°C),Sample RH (%),Span deviation,Mass concentration (μg/m³),Mass concentration (μg/m³),Mass concentration (μg/m³)
DateTimeUTC,F1_M11,P_M11,Q1_M11,Q2_M11,T1_M11,T2_M11,T3_M11,T4_M11,T5_M11,U1_M11,ZSPAN_M11,X0_M11,X2_M11,X1_M11
2022-03-27 07:00:00,,0824.0,5.00,0.00,29.1,28.0,00.0,38.2,30.9,13.8,0001.3,0018.62,0006.36,0004.28
2022-03-27 07:01:00,,0823.9,5.01,0.00,29.1,28.1,00.0,38.2,30.9,13.8,0001.5,0017.47,0006.28,0004.23
2022-03-27 07:02:00,,0823.9,4.99,0.00,29.1,28.1,00.0,38.2,30.9,13.8,0001.7,0016.61,0006.21,0004.21
2022-03-27 07:03:00,,0823.9,5.00,0.00,29.1,28.0,00.0,38.2,30.8,13.8,0001.6,0016.53,0006.17,0004.19
2022-03-27 07:04:00,,0823.9,5.01,0.00,29.1,28.0,00.0,38.2,30.8,13.8,0002.4,0016.32,0006.14,0004.16
2022-03-27 07:05:00,,0824.0,4.99,0.00,29.1,28.0,00.0,38.2,30.9,13.8,0002.6,0017.22,0006.17,0004.14
2022-03-27 07:06:00,,0824.0,4.99,0.00,29.1,28.0,00.0,38.2,30.9,13.8,0002.6,0017.35,0006.13,0004.11
2022-03-27 07:07:00,,0824.1,5.01,0.00,29.1,28.0,00.0,38.2,30.8,13.8,0002.0,0017.09,0005.97,0004.07
2022-03-27 07:08:00,,0824.1,4.98,0.00,29.1,28.1,00.0,38.1,30.8,13.8,0001.7,0018.43,0005.94,0004.06
2022-03-27 07:09:00,,0824.1,5.01,0.00,29.1,28.1,00.0,38.1,30.8,13.8,0001.5,0018.42,0005.87,0004.03
2022-03-27 07:10:00,,0824.1,5.01,0.00,29.1,28.0,00.0,38.1,30.8,13.8,0001.1,0017.71,0005.85,0004.00
2022-03-27 07:11:00,,0824.1,4.99,0.00,29.1,28.0,00.0,38.1,30.8,13.8,0001.0,0017.40,0005.77,0003.97
2022-03-27 07:12:00,,0824.0,4.99,0.00,29.1,28.0,00.0,38.1,30.8,13.8,0000.3,0017.34,0005.75,0003.95
2022-03-27 07:13:00,,0824.1,5.01,0.00,29.1,28.0,00.0,38.1,30.8,13.8,0000.0,0017.32,0005.77,0003.93
2022-03-27 07:14:00,,0824.0,5.01,0.00,29.1,28.0,00.0,38.1,30.8,13.7,0000.0,0017.43,0005.71,0003.92
2022-03-27 07:15:00,,0824.1,5.00,0.00,29.1,28.0,00.0,38.1,30.8,13.7,0000.0,0018.06,0005.65,0003.89
2022-03-27 07:16:00,,0824.1,4.98,0.00,29.1,28.0,00.0,38.1,30.8,13.7,0000.0,0017.57,0005.55,0003.86
2022-03-27 07:17:00,,0824.1,5.00,0.00,29.1,28.1,00.0,38.1,30.8,13.6,0000.0,0017.24,0005.49,0003.82
2022-03-27 07:18:00,,0824.2,5.02,0.00,29.1,28.1,00.0,38.1,30.8,13.6,0000.0,0017.16,0005.52,0003.81
2022-03-27 07:19:00,,0824.2,5.00,0.00,29.1,28.0,00.0,38.1,30.8,13.6,0000.0,0016.25,0005.49,0003.79
2022-03-27 07:20:00,,0824.2,4.98,0.00,29.1,28.0,00.0,38.1,30.8,13.7,0000.1,0016.61,0005.44,0003.78
2022-03-27 07:21:00,,0824.2,5.01,0.00,29.1,28.1,00.0,38.1,30.8,13.6,0000.1,0017.11,0005.45,0003.78
2022-03-27 07:22:00,,0824.2,5.01,0.00,29.1,28.1,00.0,38.1,30.8,13.6,0000.0,0016.75,0005.41,0003.79
2022-03-27 07:23:00,,0824.2,5.00,0.00,29.1,28.1,00.0,38.1,30.8,13.6,0000.0,0017.02,0005.40,0003.79
2022-03-27 07:24:00,,0824.2,5.00,0.00,29.1,28.1,00.0,38.1,30.8,13.6,0000.0,0017.78,0005.41,0003.79
2022-03-27 07:25:00,,0824.2,5.01,0.00,29.1,28.1,00.0,38.1,30.8,13.6,0000.1,0016.97,0005.42,0003.79
2022-03-27 07:26:00,,0824.2,5.00,0.00,29.1,28.0,00.0,38.1,30.8,13.6,0000.1,0016.34,0005.48,0003.81
2022-03-27 07:27:00,,0824.2,4.99,0.00,29.1,28.0,00.0,38.1,30.8,13.6,-000.6,0015.79,0005.50,0003.84
2022-03-27 07:28:00,,0824.3,4.99,0.00,29.1,28.0,00.0,38.1,30.8,13.6,-000.1,0015.24,0005.50,0003.86
2022-03-27 07:29:00,,0824.3,5.02,0.00,29.1,28.1,00.0,38.1,30.8,13.6,0000.6,0015.02,0005.51,0003.88
2022-03-27 07:30:00,,0824.3,4.99,0.00,29.1,28.0,00.0,38.1,30.8,13.6,0000.0,0015.24,0005.56,0003.90
2022-03-27 07:31:00,,0824.3,4.99,0.00,29.1,28.0,00.0,38.0,30.8,13.6,0000.0,0014.56,0005.59,0003.91
2022-03-27 07:32:00,,0824.3,5.00,0.00,29.1,28.1,00.0,38.0,30.8,13.6,0000.0,0014.19,0005.60,0003.91
2022-03-27 07:33:00,,0824.3,5.01,0.00,29.1,28.1,00.0,38.1,30.8,13.6,0000.0,0014.55,0005.61,0003.90
2022-03-27 07:34:00,,0824.3,5.01,0.00,29.1,28.1,00.0,38.1,30.8,13.5,-000.0,0014.87,0005.64,0003.90
2022-03-27 07:35:00,,0824.3,4.98,0.00,29.1,28.0,00.0,38.0,30.8,13.5,0000.1,0014.75,0005.63,0003.90
2022-03-27 07:36:00,,0824.3,4.99,0.00,29.1,28.1,00.0,38.0,30.8,13.5,0000.0,0014.79,0005.63,0003.91
2022-03-27 07:37:00,,0824.3,5.02,0.00,29.1,28.1,00.0,38.0,30.8,13.5,0000.0,0015.89,0005.63,0003.91
2022-03-27 07:38:00,,0824.2,5.00,0.00,29.1,28.0,00.0,38.0,30.8,13.5,0000.0,0016.86,0005.65,0003.92
2022-03-27 07:39:00,,0824.3,5.00,0.00,29.1,28.0,00.0,38.0,30.8,13.4,0000.0,0017.29,0005.69,0003.91
2022-03-27 07:40:00,,0824.3,5.00,0.00,29.1,28.0,00.0,38.0,30.8,13.4,0000.0,0017.34,0005.67,0003.91
2022-03-27 07:41:00,,0824.3,5.01,0.00,29.1,28.0,00.0,38.0,30.8,13.4,0000.0,0016.49,0005.61,0003.90
2022-03-27 07:42:00,,0824.3,5.01,0.00,29.0,28.0,00.0,38.0,30.8,13.4,0000.0,0016.34,0005.58,0003.89
2022-03-27 07:43:00,,0824.3,5.00,0.00,29.0,28.0,00.0,38.0,30.8,13.4,0000.0,0015.79,0005.49,0003.89
2022-03-27 07:44:00,,0824.3,4.99,0.00,29.0,28.0,00.0,38.0,30.8,13.4,0000.0,0015.83,0005.48,0003.88
2022-03-27 07:45:00,,0824.4,4.99,0.00,29.0,28.0,00.0,38.0,30.8,13.4,0000.0,0015.87,0005.48,0003.88
2022-03-27 07:46:00,,0824.4,5.01,0.00,29.0,28.0,00.0,38.0,30.8,13.4,0000.0,0015.96,0005.51,0003.89
2022-03-27 07:47:00,,0824.4,5.01,0.00,29.0,28.0,00.0,38.0,30.8,13.4,0000.0,0016.09,0005.50,0003.89
2022-03-27 07:48:00,,0824.4,4.99,0.00,29.0,28.0,00.0,38.0,30.8,13.4,0000.0,0015.24,0005.45,0003.88
2022-03-27 07:49:00,,0824.4,4.99,0.00,29.0,28.0,00.0,38.0,30.8,13.4,0000.0,0014.65,0005.39,0003.87
2022-03-27 07:50:00,,0824.5,5.01,0.00,29.0,28.0,00.0,38.0,30.8,13.4,0000.0,0014.28,0005.35,0003.87
2022-03-27 07:51:00,,0824.4,4.99,0.00,29.0,28.0,00.0,38.0,30.8,13.4,0000.0,0014.03,0005.28,0003.86
2022-03-27 07:52:00,,0824.4,4.99,0.00,29.0,28.0,00.0,38.0,30.8,13.4,0000.0,0014.73,0005.26,0003.84
2022-03-27 07:53:00,,0824.4,4.99,0.00,29.0,28.0,00.0,38.0,30.8,13.4,0000.0,0015.13,0005.26,0003.82
2022-03-27 07:54:00,,0824.4,5.03,0.00,29.0,28.0,00.0,38.0,30.8,13.4,0000.0,0015.52,0005.29,0003.80
2022-03-27 07:55:00,,0824.4,4.99,0.00,29.0,28.0,00.0,38.0,30.8,13.3,0000.0,0015.34,0005.31,0003.78
2022-03-27 07:56:00,,0824.4,4.99,0.00,29.0,28.0,00.0,38.0,30.8,13.3,0000.0,0014.54,0005.26,0003.75
2022-03-27 07:57:00,,0824.5,5.02,0.00,29.0,28.0,00.0,38.0,30.8,13.3,0000.0,0014.02,0005.21,0003.71
2022-03-27 07:58:00,,0824.5,5.00,0.00,29.0,28.0,00.0,38.0,30.8,13.3,0000.0,0013.78,0005.22,0003.67
2022-03-27 07:59:00,,0824.5,4.98,0.00,29.0,28.0,00.0,38.0,30.8,13.2,0000.0,0013.79,0005.17,0003.63
